User: anonymous   Login
Location: Springfield
(37.2150°N, 93.2980°W)
Time: 18:12:27
(UTC-06:00)
Language:

Iridium 62 - Orbit

View from above orbital plane
View from above orbital plane
View from above satellite
View from above satellite

Ground track
Ground track

The orbit data is extracted from the following two-line orbital elements,

1 25285U 98021A   15032.13058898  .00000182  00000-0  57839-4 0  1095
2 25285 086.3939 226.3072 0001894 105.0869 255.0537 14.34215647880746
Epoch (UTC): 01 February 2015 03:08:02
Eccentricity: 0.0001894
inclination: 86.3939°
perigee height: 776 km
apogee height: 779 km
right ascension of ascending node: 226.3072°
argument of perigee: 105.0869°
revolutions per day: 14.34215647
mean anomaly at epoch: 255.0537°
orbit number at epoch: 88074

The dashed part of the orbit path shows where the satellite is in the earth's shadow,  

DLR